Meteo Giornale » Osservazioni meteo Olanda » Amsterdam Schiphol

ore: 14:55 - Osservazioni Meteo Amsterdam Schiphol
Lat. 52° 18' N Lon. 4° 46' E Alt. -4 metri s.l.m.

sereno Europe/Amsterdam

19 °C

Sereno

Temp. 24 Ore

3 °C

19 °C

Sud/Sud-Ovest

18.5 Km/h

Dew point 5 °C

Umidità 39 %

Visibilità  10 Km

Il sole sorge alle ore 07:21

Il sole tramonta alle ore 20:10

Data e Ora Cielo e Fenomeni T °C DP °C Um. % Pres. hPa Vis. km Vento km/h
Oggi h: 14:55 sereno Sereno 19 5 39 1020 10 S/SO 18.5
Oggi h: 14:25 sereno Sereno 19 4 37 1020 10 S/SO 18.5
Oggi h: 13:55 sereno Sereno 19 5 39 1020 10 S/SO 18.5
Oggi h: 13:25 sereno Sereno 18 4 39 1020 10 S/SO 13
Oggi h: 12:55 sereno Sereno 18 4 39 1020 10 S/SO 13
Oggi h: 12:25 sereno Sereno 18 4 39 1020 10 SO 11.1
Oggi h: 11:55 sereno Sereno 17 3 39 1020 10 N 5.5
Oggi h: 11:25 sereno Sereno 16 3 41 1020 10 N 5.5
Oggi h: 10:55 sereno Sereno 15 4 47 1020 10 N 3.7
Oggi h: 10:25 sereno Sereno 13 5 58 1020 10 N 3.7
Oggi h: 09:55 sereno Sereno 11 5 66 1020 10 N 3.7
Oggi h: 09:25 sereno Sereno 10 5 71 1020 10 N 1.8
Oggi h: 08:55 sereno Sereno 8 5 81 1020 10 N 1.8
Oggi h: 08:25 nebbia Nebbia a Strati 6 2 75 1020 10 N 3.7
Oggi h: 07:55 nebbia Nebbia a Strati 5 2 80 1020 10 N 3.7
Oggi h: 07:25 nebbia Nebbia a Strati 4 2 86 1019 10 N 3.7
Oggi h: 06:55 nebbia Nebbia a Strati 4 2 86 1019 10 N 1.8
Oggi h: 06:25 nebbia Nebbia a Strati 3 2 93 1019 10 N 1.8
Oggi h: 05:55 nebbia Nebbia a Strati 4 2 86 1019 10 N 0
Oggi h: 05:25 nebbia Nebbia a Strati 4 3 93 1020 10 N 1.8
Oggi h: 04:55 nebbia Nebbia a Strati 5 3 86 1020 10 N 1.8
Oggi h: 04:25 nebbia Nebbia a Strati 4 2 86 1020 10 N 0
Oggi h: 03:55 nebbia Nebbia a Strati 5 2 80 1020 10 N 3.7
Oggi h: 03:25 nebbia Nebbia a Strati 5 3 86 1020 10 N 1.8
Oggi h: 02:55 sereno Sereno 6 3 81 1020 10 N 1.8
Oggi h: 02:25 sereno Sereno 6 3 81 1020 10 N 1.8
Oggi h: 01:55 sereno Sereno 6 3 81 1020 10 N 1.8
Oggi h: 01:25 sereno Sereno 6 3 81 1020 10 N 1.8
Oggi h: 00:55 sereno Sereno 8 3 70 1021 10 N 1.8
Oggi h: 00:25 sereno Sereno 8 2 65 1021 10 N 5.5
Ieri h: 23:55 sereno Sereno 7 2 70 1021 10 E/NE 7.4
Ieri h: 23:25 sereno Sereno 8 3 70 1021 10 N 5.5
Ieri h: 22:55 sereno Sereno 9 3 66 1021 10 N 3.7
Ieri h: 22:25 sereno Sereno 9 2 61 1021 10 N 1.8
Ieri h: 21:55 sereno Sereno 11 2 53 1021 10 N 5.5
Ieri h: 21:25 sereno Sereno 11 1 50 1021 10 E/SE 7.4
Ieri h: 20:55 sereno Sereno 12 0 43 1021 10 SE 7.4
Ieri h: 20:25 sereno Sereno 13 1 43 1021 10 S/SE 9.3
Ieri h: 19:55 sereno Sereno 14 1 41 1021 10 S 11.1
Ieri h: 19:25 sereno Sereno 15 2 41 1020 10 S/SE 11.1
Ieri h: 18:55 sereno Sereno 16 2 38 1020 10 SE 9.3
Ieri h: 18:25 sereno Sereno 17 2 36 1020 10 E 11.1
Ieri h: 17:55 sereno Sereno 17 2 36 1021 10 N 9.3
Ieri h: 17:25 sereno Sereno 18 3 36 1021 10 E 11.1
Ieri h: 16:55 sereno Sereno 18 2 34 1021 10 SE 11.1
Ieri h: 16:25 sereno Sereno 17 2 36 1021 10 E/SE 11.1
Ieri h: 15:55 sereno Sereno 18 2 34 1022 10 S/SE 14.8